York, NE

5:44 PM CDT on April 30, 2017 (GMT -0500)
York Municipal

Weather History for KJYR - March, 2013

Change the Weather History Date:

Tuesday, March 5, 2013

  Actual Average Record
Temperature  
Mean Temperature 26 °F -  
Max Temperature 33 °F 44 °F 73 °F (1987)
Min Temperature 19 °F 23 °F -8 °F (1960)
Degree Days  
Heating Degree Days 39    
Moisture  
Dew Point 16 °F    
Average Humidity 63    
Maximum Humidity 86    
Minimum Humidity 48    
Precipitation  
Precipitation 0.00 in - - ()
Sea Level Pressure  
Sea Level Pressure 30.24 in    
Wind  
Wind Speed 21 mph (NNW)    
Max Wind Speed 29 mph    
Max Gust Speed 41 mph    
Visibility 10 miles    
Events Snow    
Averages and records for this station are not official NWS values.
T = Trace of Precipitation, MM = Missing Value Source: NWS Daily Summary

Daily Weather History Graph

Daily Weather History Graph

Search for Another Location

Airport or City:

Trip Planner

Search our weather history database for the weather conditions in past years. The results will help you decide how hot, cold, wet, or windy it might be!

Date:

Astronomy

Mar. 05, 2013 Rise Set
Actual Time 6:57 AM CST 6:26 PM CST
Civil Twilight 6:30 AM CST 6:53 PM CST
Nautical Twilight 5:58 AM CST 7:25 PM CST
Astronomical Twilight 5:26 AM CST 7:57 PM CST
Moon 2:13 AM CST (3/5) 12:05 PM CST (3/5)
Length of Visible Light 12h 23m
Length of Day
11h 28m
Last Quarter, 40% of the Moon is Illuminated
Mar 5
Last Quarter
Mar 11
New
Mar 19
First Quarter
Mar 27
Full
Apr 2
Last Quarter

Hourly Weather History & Observations

Time (CST) Temp. Windchill Dew Point Humidity Pressure Visibility Wind Dir Wind Speed Gust Speed Precip Events Conditions
12:15 AM 28.4 °F 13.5 °F 15.8 °F 59% 30.08 in 10.0 mi NW 26.5 mph 33.4 mph N/A   Scattered Clouds
12:35 AM 26.6 °F 11.1 °F 14.0 °F 59% 30.07 in 10.0 mi NW 26.5 mph 32.2 mph N/A   Clear
12:55 AM 26.6 °F 12.4 °F 15.8 °F 64% 30.08 in 10.0 mi NW 21.9 mph 34.5 mph N/A   Clear
1:15 AM 26.6 °F 12.7 °F 15.8 °F 64% 30.08 in 10.0 mi NW 20.7 mph 29.9 mph N/A   Clear
1:55 AM 24.8 °F 9.6 °F 14.0 °F 64% 30.09 in 10.0 mi NW 23.0 mph 28.8 mph N/A   Partly Cloudy
2:35 AM 24.8 °F 9.0 °F 14.0 °F 64% 30.09 in 10.0 mi NW 25.3 mph 32.2 mph N/A   Partly Cloudy
2:55 AM 24.8 °F 10.0 °F 14.0 °F 64% 30.09 in 10.0 mi NW 21.9 mph 29.9 mph N/A   Clear
3:15 AM 24.8 °F 10.3 °F 14.0 °F 64% 30.10 in 10.0 mi NW 20.7 mph 32.2 mph N/A   Scattered Clouds
3:35 AM 23.0 °F 7.6 °F 14.0 °F 68% 30.10 in 10.0 mi NW 21.9 mph 27.6 mph N/A   Mostly Cloudy
3:55 AM 23.0 °F 7.2 °F 14.0 °F 68% 30.11 in 10.0 mi NW 23.0 mph 28.8 mph N/A   Overcast
4:15 AM 23.0 °F 7.2 °F 14.0 °F 68% 30.11 in 10.0 mi NW 23.0 mph 31.1 mph N/A   Overcast
4:35 AM 23.0 °F 7.6 °F 12.2 °F 63% 30.11 in 10.0 mi NW 21.9 mph 29.9 mph N/A   Overcast
4:55 AM 23.0 °F 8.0 °F 12.2 °F 63% 30.12 in 10.0 mi NW 20.7 mph 29.9 mph N/A   Partly Cloudy
5:15 AM 23.0 °F 8.3 °F 14.0 °F 68% 30.12 in 10.0 mi NW 19.6 mph 28.8 mph N/A   Clear
5:35 AM 23.0 °F 6.9 °F 14.0 °F 68% 30.12 in 10.0 mi NW 24.2 mph 28.8 mph N/A   Clear
5:55 AM 23.0 °F 7.2 °F 14.0 °F 68% 30.13 in 10.0 mi NW 23.0 mph 32.2 mph N/A   Clear
6:15 AM 23.0 °F 6.9 °F 14.0 °F 68% 30.13 in 10.0 mi NW 24.2 mph 29.9 mph N/A   Clear
6:55 AM 23.0 °F 7.2 °F 14.0 °F 68% 30.15 in 10.0 mi NW 23.0 mph 35.7 mph N/A   Mostly Cloudy
7:15 AM 23.0 °F 6.3 °F 14.0 °F 68% 30.16 in 10.0 mi NW 26.5 mph 33.4 mph N/A   Overcast
7:35 AM 23.0 °F 6.3 °F 14.0 °F 68% 30.17 in 10.0 mi NW 26.5 mph 35.7 mph N/A   Overcast
7:55 AM 23.0 °F 7.2 °F 14.0 °F 68% 30.17 in 10.0 mi NW 23.0 mph 31.1 mph N/A   Overcast
8:15 AM 24.8 °F 10.0 °F 14.0 °F 64% 30.18 in 10.0 mi NW 21.9 mph 32.2 mph N/A   Mostly Cloudy
8:35 AM 24.8 °F 10.7 °F 14.0 °F 64% 30.18 in 10.0 mi NNW 19.6 mph 31.1 mph N/A   Mostly Cloudy
8:55 AM 24.8 °F 8.1 °F 14.0 °F 64% 30.19 in 10.0 mi NNW 28.8 mph 35.7 mph N/A   Mostly Cloudy
9:15 AM 24.8 °F 8.1 °F 14.0 °F 64% 30.20 in 10.0 mi NNW 28.8 mph 38.0 mph N/A   Overcast
9:35 AM 26.6 °F 12.7 °F 15.8 °F 64% 30.22 in 10.0 mi NNW 20.7 mph 41.4 mph N/A Snow Light Snow
9:55 AM 26.6 °F 11.1 °F 15.8 °F 64% 30.22 in 10.0 mi NNW 26.5 mph 39.1 mph N/A Snow Light Snow
10:15 AM 26.6 °F 11.4 °F 15.8 °F 64% 30.23 in 10.0 mi NNW 25.3 mph 36.8 mph N/A Snow Light Snow
10:35 AM 26.6 °F 11.4 °F 15.8 °F 64% 30.24 in 10.0 mi NNW 25.3 mph 36.8 mph N/A Snow Light Snow
10:55 AM 28.4 °F 13.5 °F 15.8 °F 59% 30.24 in 10.0 mi NNW 26.5 mph 34.5 mph N/A Snow Light Snow
11:15 AM 28.4 °F 14.1 °F 15.8 °F 59% 30.25 in 10.0 mi NNW 24.2 mph 34.5 mph N/A   Overcast
11:35 AM 28.4 °F 13.5 °F 15.8 °F 59% 30.25 in 10.0 mi NNW 26.5 mph 34.5 mph N/A   Overcast
11:55 AM 28.4 °F 13.0 °F 15.8 °F 59% 30.25 in 10.0 mi NW 28.8 mph 35.7 mph N/A   Overcast
12:15 PM 32.0 °F 19.2 °F 15.8 °F 51% 30.25 in 10.0 mi NNW 23.0 mph 35.7 mph N/A   Overcast
12:35 PM 30.2 °F 18.1 °F 15.8 °F 55% 30.26 in 10.0 mi NNW 18.4 mph 33.4 mph N/A   Overcast
12:55 PM 32.0 °F 19.5 °F 15.8 °F 51% 30.25 in 10.0 mi NNW 21.9 mph 35.7 mph N/A   Mostly Cloudy
1:15 PM 32.0 °F 19.5 °F 15.8 °F 51% 30.25 in 10.0 mi North 21.9 mph 26.5 mph N/A   Mostly Cloudy
1:35 PM 32.0 °F 17.9 °F 15.8 °F 51% 30.26 in 10.0 mi NNW 28.8 mph 33.4 mph N/A   Partly Cloudy
1:55 PM 32.0 °F 19.8 °F 15.8 °F 51% 30.26 in 10.0 mi NNW 20.7 mph 26.5 mph N/A   Scattered Clouds
2:15 PM 32.0 °F 19.8 °F 15.8 °F 51% 30.27 in 10.0 mi NNW 20.7 mph 27.6 mph N/A   Mostly Cloudy
2:35 PM 33.8 °F 21.3 °F 15.8 °F 48% 30.27 in 10.0 mi NNW 24.2 mph 35.7 mph N/A   Scattered Clouds
2:55 PM 33.8 °F 22.8 °F 15.8 °F 48% 30.27 in 10.0 mi NNW 18.4 mph 27.6 mph N/A   Partly Cloudy
3:15 PM 33.8 °F 21.3 °F 15.8 °F 48% 30.28 in 10.0 mi NNW 24.2 mph 33.4 mph N/A   Partly Cloudy
3:35 PM 33.8 °F 22.8 °F 15.8 °F 48% 30.28 in 10.0 mi North 18.4 mph 27.6 mph N/A   Partly Cloudy
3:55 PM 33.8 °F 23.5 °F 15.8 °F 48% 30.27 in 10.0 mi North 16.1 mph 27.6 mph N/A   Partly Cloudy
4:15 PM 33.8 °F 23.5 °F 15.8 °F 48% 30.27 in 10.0 mi NNW 16.1 mph 27.6 mph N/A   Clear
4:35 PM 33.8 °F 23.9 °F 15.8 °F 48% 30.28 in 10.0 mi North 15.0 mph 28.8 mph N/A   Partly Cloudy
4:55 PM 32.0 °F 21.2 °F 15.8 °F 51% 30.28 in 10.0 mi North 16.1 mph 20.7 mph N/A   Clear
5:15 PM 32.0 °F 20.8 °F 15.8 °F 51% 30.30 in 10.0 mi NNW 17.3 mph 28.8 mph N/A   Clear
5:35 PM 32.0 °F 22.5 °F 15.8 °F 51% 30.30 in 10.0 mi North 12.7 mph 24.2 mph N/A   Clear
5:55 PM 32.0 °F 22.1 °F 15.8 °F 51% 30.30 in 10.0 mi NNW 13.8 mph - N/A   Clear
6:15 PM 32.0 °F 23.6 °F 15.8 °F 51% 30.31 in 10.0 mi NNW 10.4 mph 18.4 mph N/A   Clear
6:35 PM 30.2 °F 23.4 °F 17.6 °F 60% 30.32 in 10.0 mi North 6.9 mph - N/A   Clear
6:55 PM 28.4 °F 21.2 °F 17.6 °F 64% 30.33 in 10.0 mi North 6.9 mph - N/A   Clear
7:15 PM 26.6 °F 19.1 °F 17.6 °F 69% 30.33 in 10.0 mi North 6.9 mph - N/A   Clear
7:35 PM 26.6 °F 22.6 °F 17.6 °F 69% 30.34 in 10.0 mi North 3.5 mph - N/A   Clear
7:55 PM 26.6 °F 19.1 °F 17.6 °F 69% 30.34 in 10.0 mi North 6.9 mph - N/A   Clear
8:15 PM 26.6 °F 19.1 °F 17.6 °F 69% 30.34 in 10.0 mi North 6.9 mph - N/A   Clear
8:35 PM 24.8 °F 17.9 °F 17.6 °F 74% 30.34 in 10.0 mi North 5.8 mph - N/A   Clear
8:55 PM 24.8 °F 16.9 °F 17.6 °F 74% 30.34 in 10.0 mi North 6.9 mph - N/A   Clear
9:15 PM 23.0 °F 14.7 °F 17.6 °F 80% 30.35 in 10.0 mi North 6.9 mph - N/A   Clear
9:35 PM 23.0 °F 14.7 °F 17.6 °F 80% 30.36 in 10.0 mi North 6.9 mph - N/A   Clear
9:55 PM 23.0 °F 14.7 °F 17.6 °F 80% 30.36 in 10.0 mi North 6.9 mph - N/A   Clear
10:15 PM 23.0 °F 14.7 °F 17.6 °F 80% 30.36 in 10.0 mi North 6.9 mph - N/A   Clear
10:35 PM 23.0 °F - 17.6 °F 80% 30.37 in 10.0 mi Calm Calm - N/A   Clear
10:55 PM 21.2 °F - 17.6 °F 86% 30.38 in 10.0 mi Calm Calm - N/A   Clear
11:15 PM 19.4 °F - 15.8 °F 86% 30.38 in 10.0 mi Calm Calm - N/A   Clear
11:35 PM 19.4 °F - 15.8 °F 86% 30.38 in 10.0 mi Calm Calm - N/A   Clear
11:55 PM 19.4 °F - 15.8 °F 86% 30.38 in 10.0 mi Calm Calm - N/A   Clear